• In Czech Republic
  • List of Countries
  • For 7 days
  • Water Temperature
  • Satellite Maps
  • Weather Map
  • Weather Widgets
  • user-avatar
    Login

    Hourly Weather Calgari

    Today, 17 January, Wednesday

    Time Temperature Precipitation Wind Pressure Humidity
    00:00 +11°C° 0 mm 9 mps 762 mmHg 89%
    01:00 +11°C° 0 mm 9 mps 762 mmHg 89%
    02:00 +11°C° 0 mm 9 mps 761 mmHg 89%
    03:00 +11°C° 0 mm 8 mps 761 mmHg 89%
    04:00 +11°C° 0 mm 8 mps 760 mmHg 89%
    05:00 +12°C° 0 mm 8 mps 760 mmHg 89%
    06:00 +12°C° 0 mm 8 mps 760 mmHg 88%
    07:00 +12°C° 0 mm 8 mps 760 mmHg 88%
    08:00 +12°C° 0 mm 8 mps 760 mmHg 86%
    09:00 +13°C° 0 mm 8 mps 760 mmHg 84%
    10:00 +13°C° 0 mm 9 mps 760 mmHg 82%
    11:00 +15°C° 0.1 mm 9 mps 760 mmHg 72%
    12:00 +15°C° 0.1 mm 9 mps 760 mmHg 62%
    13:00 +16°C° 0.1 mm 9 mps 760 mmHg 52%
    14:00 +15°C° 0 mm 9 mps 760 mmHg 51%
    15:00 +15°C° 0 mm 9 mps 761 mmHg 50%
    16:00 +13°C° 0 mm 8 mps 761 mmHg 48%
    17:00 +12°C° 0 mm 8 mps 761 mmHg 53%
    18:00 +10°C° 0 mm 8 mps 762 mmHg 58%
    19:00 +9°C° 0 mm 8 mps 762 mmHg 63%
    20:00 +9°C° 0 mm 8 mps 763 mmHg 63%
    21:00 +7°C° 0 mm 8 mps 764 mmHg 63%
    22:00 +8°C° 0 mm 7 mps 764 mmHg 63%
    23:00 +8°C° 0 mm 7 mps 765 mmHg 65%

    Tomorrow, 18 January, Thursday

    Time Temperature Precipitation Wind Pressure Humidity
    00:00 +6°C° 0 mm 7 mps 765 mmHg 66%
    01:00 +7°C° 0 mm 6 mps 766 mmHg 67%
    02:00 +7°C° 0 mm 6 mps 766 mmHg 69%
    03:00 +5°C° 0 mm 6 mps 766 mmHg 71%
    04:00 +5°C° 0 mm 6 mps 766 mmHg 72%
    05:00 +6°C° 0 mm 5 mps 766 mmHg 74%
    06:00 +6°C° 0 mm 5 mps 766 mmHg 77%
    07:00 +5°C° 0 mm 4 mps 767 mmHg 79%
    08:00 +7°C° 0 mm 5 mps 767 mmHg 73%
    09:00 +9°C° 0 mm 5 mps 767 mmHg 67%
    10:00 +10°C° 0 mm 5 mps 767 mmHg 61%
    11:00 +12°C° 0 mm 5 mps 767 mmHg 57%
    12:00 +14°C° 0 mm 6 mps 767 mmHg 53%
    13:00 +15°C° 0 mm 6 mps 767 mmHg 50%
    14:00 +14°C° 0 mm 6 mps 766 mmHg 53%
    15:00 +14°C° 0 mm 6 mps 766 mmHg 56%
    16:00 +14°C° 0 mm 6 mps 765 mmHg 59%
    17:00 +11°C° 0 mm 6 mps 765 mmHg 68%
    18:00 +9°C° 0 mm 5 mps 765 mmHg 77%
    19:00 +8°C° 0 mm 5 mps 765 mmHg 86%
    20:00 +7°C° 0 mm 4 mps 765 mmHg 87%
    21:00 +7°C° 0 mm 4 mps 765 mmHg 89%
    22:00 +7°C° 0 mm 4 mps 764 mmHg 90%
    23:00 +7°C° 0 mm 4 mps 764 mmHg 90%

    Day after tomorrow, 19 January, Friday

    Time Temperature Precipitation Wind Pressure Humidity
    00:00 +7°C° 0 mm 4 mps 763 mmHg 90%
    01:00 +7°C° 0 mm 4 mps 763 mmHg 90%
    02:00 +6°C° 0 mm 4 mps 763 mmHg 90%
    03:00 +7°C° 0 mm 3 mps 762 mmHg 90%
    04:00 +7°C° 0 mm 3 mps 762 mmHg 90%
    05:00 +7°C° 0 mm 3 mps 762 mmHg 90%
    06:00 +7°C° 0 mm 3 mps 761 mmHg 90%
    07:00 +7°C° 0 mm 3 mps 761 mmHg 90%
    08:00 +9°C° 0 mm 3 mps 761 mmHg 84%
    09:00 +11°C° 0 mm 4 mps 761 mmHg 78%
    10:00 +12°C° 0 mm 4 mps 761 mmHg 73%
    11:00 +13°C° 0 mm 4 mps 761 mmHg 68%
    12:00 +15°C° 0 mm 4 mps 761 mmHg 64%
    13:00 +17°C° 0 mm 4 mps 760 mmHg 60%
    14:00 +17°C° 0 mm 4 mps 760 mmHg 62%
    15:00 +15°C° 0 mm 4 mps 760 mmHg 64%
    16:00 +15°C° 0 mm 5 mps 759 mmHg 66%
    17:00 +14°C° 0 mm 4 mps 759 mmHg 75%
    18:00 +12°C° 0 mm 4 mps 760 mmHg 83%
    19:00 +11°C° 0 mm 4 mps 760 mmHg 91%
    20:00 +11°C° 0 mm 4 mps 760 mmHg 91%
    21:00 +9°C° 0 mm 5 mps 760 mmHg 91%
    22:00 +9°C° 0 mm 5 mps 760 mmHg 90%
    23:00 +9°C° 0 mm 5 mps 760 mmHg 88%

    20 January, Saturday

    Time Temperature Precipitation Wind Pressure Humidity
    00:00 +9°C° 0 mm 5 mps 760 mmHg 86%
    01:00 +9°C° 0 mm 5 mps 760 mmHg 84%
    02:00 +8°C° 0 mm 5 mps 760 mmHg 82%
    03:00 +8°C° 0 mm 6 mps 760 mmHg 81%
    04:00 +8°C° 0 mm 6 mps 760 mmHg 79%
    05:00 +8°C° 0 mm 6 mps 760 mmHg 75%
    06:00 +8°C° 0 mm 7 mps 761 mmHg 71%
    07:00 +8°C° 0 mm 7 mps 761 mmHg 67%
    08:00 +9°C° 0 mm 8 mps 761 mmHg 62%
    09:00 +10°C° 0 mm 9 mps 762 mmHg 56%
    10:00 +11°C° 0 mm 10 mps 762 mmHg 51%
    11:00 +12°C° 0 mm 9 mps 762 mmHg 47%
    12:00 +12°C° 0 mm 9 mps 761 mmHg 43%
    13:00 +13°C° 0 mm 9 mps 761 mmHg 38%
    14:00 +13°C° 0 mm 9 mps 761 mmHg 42%
    15:00 +12°C° 0 mm 9 mps 761 mmHg 45%
    16:00 +12°C° 0 mm 9 mps 761 mmHg 49%
    17:00 +10°C° 0 mm 8 mps 761 mmHg 55%
    18:00 +9°C° 0 mm 7 mps 761 mmHg 62%
    19:00 +8°C° 0 mm 7 mps 760 mmHg 68%
    20:00 +9°C° 0 mm 7 mps 760 mmHg 71%
    21:00 +9°C° 0 mm 7 mps 760 mmHg 73%
    22:00 +9°C° 0 mm 8 mps 760 mmHg 76%
    23:00 +10°C° 0.2 mm 9 mps 759 mmHg 79%

    21 January, Sunday

    Time Temperature Precipitation Wind Pressure Humidity
    00:00 +9°C° 0.2 mm 10 mps 758 mmHg 82%
    01:00 +11°C° 0.2 mm 11 mps 758 mmHg 85%
    02:00 +11°C° 0.1 mm 11 mps 757 mmHg 83%
    03:00 +12°C° 0.1 mm 12 mps 756 mmHg 81%
    04:00 +12°C° 0.1 mm 12 mps 755 mmHg 79%
    05:00 +12°C° 0 mm 13 mps 755 mmHg 76%
    06:00 +10°C° 0 mm 13 mps 755 mmHg 72%
    07:00 +10°C° 0 mm 13 mps 755 mmHg 69%
    08:00 +10°C° 0 mm 13 mps 756 mmHg 64%
    09:00 +12°C° 0 mm 13 mps 757 mmHg 60%
    10:00 +12°C° 0 mm 12 mps 759 mmHg 55%
    11:00 +12°C° 0 mm 11 mps 759 mmHg 53%
    12:00 +13°C° 0 mm 9 mps 760 mmHg 51%
    13:00 +15°C° 0 mm 8 mps 761 mmHg 49%
    14:00 +14°C° 0 mm 7 mps 761 mmHg 48%
    15:00 +14°C° 0 mm 7 mps 762 mmHg 48%
    16:00 +14°C° 0 mm 6 mps 762 mmHg 48%
    17:00 +11°C° 0 mm 6 mps 763 mmHg 54%
    18:00 +9°C° 0 mm 5 mps 763 mmHg 61%
    19:00 +8°C° 0 mm 5 mps 764 mmHg 67%
    20:00 +7°C° 0 mm 4 mps 765 mmHg 69%
    21:00 +8°C° 0 mm 3 mps 765 mmHg 71%
    22:00 +8°C° 0 mm 3 mps 766 mmHg 72%
    23:00 +8°C° 0 mm 3 mps 766 mmHg 72%

    22 January, Monday

    Time Temperature Precipitation Wind Pressure Humidity
    00:00 +8°C° 0 mm 3 mps 766 mmHg 71%
    01:00 +9°C° 0 mm 2 mps 766 mmHg 70%
    02:00 +9°C° 0 mm 3 mps 766 mmHg 71%
    03:00 +9°C° 0 mm 3 mps 766 mmHg 73%
    04:00 +10°C° 0 mm 3 mps 766 mmHg 75%
    05:00 +10°C° 0.1 mm 4 mps 766 mmHg 80%
    06:00 +10°C° 0.1 mm 5 mps 765 mmHg 85%
    07:00 +11°C° 0.1 mm 6 mps 765 mmHg 90%
    08:00 +12°C° 0 mm 7 mps 765 mmHg 86%
    09:00 +14°C° 0 mm 7 mps 765 mmHg 83%
    10:00 +15°C° 0 mm 8 mps 765 mmHg 79%
    11:00 +15°C° 0 mm 8 mps 765 mmHg 74%
    12:00 +16°C° 0 mm 8 mps 765 mmHg 68%
    13:00 +17°C° 0 mm 8 mps 765 mmHg 62%
    14:00 +17°C° 0 mm 9 mps 764 mmHg 63%
    15:00 +17°C° 0 mm 9 mps 764 mmHg 64%
    16:00 +16°C° 0 mm 9 mps 764 mmHg 65%
    17:00 +15°C° 0 mm 8 mps 764 mmHg 72%
    18:00 +13°C° 0 mm 8 mps 764 mmHg 78%
    19:00 +12°C° 0 mm 7 mps 764 mmHg 85%
    20:00 +12°C° 0 mm 7 mps 764 mmHg 85%
    21:00 +12°C° 0 mm 7 mps 764 mmHg 85%
    22:00 +12°C° 0 mm 7 mps 764 mmHg 84%
    23:00 +12°C° 0 mm 7 mps 764 mmHg 84%
    Show more